Location: S�tio Afonso Gruber
(26.1760°S, 49.5250°W)
Time: 09:25:21
(UTC+00:00)

Cosmos 1844 Rocket - Pass Details

Date: 10 October 2020
Orbit: 823 x 846 km, 71.0° (Epoch: 22 October)

Event Time Altitude Azimuth Distance (km) Brightness Sun altitude
Exits shadow 05:46:46 27° 105° (ESE) 1,590 4.5 -38.7°
Drops below altitude 10° 05:50:08 10° 137° (SE) 2,472 5.8 -38.1°
Sets 05:52:51 0° 147° (SSE) 3,410 6.7 -37.6°
